FW7460 Weather Reports


Display with metric or nautical units.
time (UTC)temp
F
wind
direction
speed
MPH
gust
MPH
rain 1hr
in
rain 24hr
in
rain mn
in
humidity
%
barometer
mb
20260505075429 47 105 4.0 5.0 0.00 0.00 0.00 93 1005.5
20260505074927 47 87 4.0 5.0 0.00 0.00 0.00 93 1005.5
20260505074424 47 115 2.0 5.0 0.00 0.00 0.00 93 1005.7
20260505073921 47 143 3.0 5.0 0.00 0.00 0.00 93 1005.7
20260505073419 47 100 2.0 3.0 0.00 0.00 0.00 93 1006.0
20260505072916 47 177 2.0 2.0 0.00 0.00 0.00 93 1006.2
20260505072412 47 209 3.0 3.0 0.00 0.00 0.00 93 1006.1
20260505071908 47 109 4.0 5.0 0.00 0.00 0.00 94 1006.1
20260505071404 47 100 3.0 3.0 0.00 0.00 0.00 94 1006.4
20260505070902 47 244 1.0 1.0 0.00 0.00 0.00 94 1006.3
20260505070358 47 321 0.0 0.0 0.00 0.00 0.00 94 1006.6
20260505065854 47 285 1.0 2.0 0.00 0.00 0.00 94 1006.6
20260505065351 47 351 0.0 3.0 0.00 0.00 0.00 94 1006.4
20260505064848 47 338 0.0 2.0 0.00 0.00 0.00 94 1006.4
20260505064345 47 135 3.0 6.0 0.00 0.00 0.00 94 1006.6
20260505063844 46 160 3.0 5.0 0.00 0.00 0.00 94 1006.6
20260505063339 46 331 0.0 0.0 0.00 0.00 0.00 95 1006.6
20260505062836 47 94 2.0 3.0 0.00 0.00 0.00 95 1006.6
20260505062333 47 100 5.0 6.0 0.00 0.00 0.00 95 1006.6
20260505061830 47 99 3.0 3.0 0.00 0.00 0.00 95 1006.6
20260505061328 46 69 3.0 3.0 0.00 0.00 0.00 95 1006.6
20260505060825 46 354 0.0 0.0 0.00 0.00 0.00 95 1006.4
20260505060322 46 317 0.0 0.0 0.00 0.00 0.00 95 1006.7
20260505055818 46 323 0.0 1.0 0.00 0.12 0.12 95 1006.7
20260505055314 46 326 1.0 2.0 0.00 0.12 0.12 94 1006.8
20260505054812 46 291 2.0 2.0 0.00 0.12 0.12 94 1006.7
20260505054308 46 1 0.0 0.0 0.00 0.12 0.12 94 1006.8
20260505053807 46 12 2.0 2.0 0.00 0.12 0.12 94 1006.9
20260505053303 47 326 0.0 1.0 0.00 0.12 0.12 94 1006.7
20260505052800 47 2 2.0 3.0 0.00 0.12 0.12 94 1006.8
20260505052257 47 345 0.0 0.0 0.00 0.12 0.12 94 1006.8
20260505051754 47 4 1.0 3.0 0.00 0.12 0.12 94 1006.8
20260505051252 47 41 5.0 6.0 0.00 0.12 0.12 94 1006.9
20260505050750 47 20 1.0 5.0 0.00 0.12 0.12 94 1006.7
20260505050248 47 83 3.0 5.0 0.00 0.12 0.12 94 1006.9
20260505041718 47 318 2.0 3.0 0.05 0.08 0.08 92 1007.3
20260505041215 47 313 4.0 6.0 0.07 0.07 0.07 91 1007.4
20260505040712 47 305 5.0 7.0 0.07 0.07 0.07 91 1007.4
20260505040209 47 320 2.0 5.0 0.05 0.06 0.06 90 1007.4
20260505035706 47 338 4.0 6.0 0.17 0.06 0.06 90 1007.1
20260505035202 48 327 4.0 6.0 0.12 0.05 0.05 89 1007.1
20260505034659 49 331 4.0 5.0 0.00 0.03 0.03 85 1007.3
20260505034156 49 331 4.0 5.0 0.00 0.03 0.03 85 1007.0
20260505033652 49 312 3.0 3.0 0.07 0.03 0.03 83 1006.8
20260505033151 49 298 2.0 3.0 0.07 0.03 0.03 81 1006.8
20260505032648 49 289 4.0 5.0 0.12 0.02 0.02 82 1006.8
20260505032139 49 235 5.0 5.0 0.12 0.02 0.02 80 1006.4
20260505031636 51 191 7.0 9.0 0.00 0.00 0.00 75 1006.4
20260505031132 52 217 8.0 17.0 0.00 0.00 0.00 71 1006.6
20260505030629 53 221 11.0 14.0 0.00 0.00 0.00 65 1006.2
20260505030125 53 227 13.0 14.0 0.00 0.00 0.00 63 1006.3
20260505025621 53 236 7.0 10.0 0.00 0.00 0.00 64 1006.3
20260505025120 53 224 9.0 15.0 0.00 0.00 0.00 63 1006.0
20260505024617 53 218 6.0 7.0 0.00 0.00 0.00 63 1006.0
20260505024114 53 213 4.0 7.0 0.00 0.00 0.00 62 1005.7
20260505023611 53 286 2.0 3.0 0.00 0.00 0.00 63 1005.7
20260505023109 53 220 3.0 3.0 0.00 0.00 0.00 64 1005.7
20260505022606 53 307 2.0 2.0 0.00 0.00 0.00 64 1005.5
20260505022103 53 294 2.0 5.0 0.00 0.00 0.00 64 1005.5
20260505021559 53 272 3.0 5.0 0.00 0.00 0.00 65 1005.4
20260505021056 53 295 5.0 6.0 0.00 0.00 0.00 65 1005.6
20260505020556 53 297 3.0 3.0 0.00 0.00 0.00 67 1005.5
20260505020053 53 295 3.0 3.0 0.00 0.00 0.00 66 1005.3
20260505015550 53 321 2.0 2.0 0.00 0.00 0.00 64 1005.3
20260505015047 53 317 1.0 1.0 0.00 0.00 0.00 64 1005.1
20260505014544 54 263 2.0 3.0 0.00 0.00 0.00 64 1005.4
20260505014041 54 299 1.0 1.0 0.00 0.00 0.00 65 1005.0
20260505013537 55 349 2.0 7.0 0.00 0.00 0.00 63 1004.7
20260505013035 56 309 1.0 1.0 0.00 0.00 0.00 58 1004.7
20260505012533 56 321 1.0 3.0 0.00 0.00 0.00 57 1005.0
20260505012030 56 277 1.0 3.0 0.00 0.00 0.00 57 1004.9
20260505011525 56 242 3.0 3.0 0.00 0.00 0.00 57 1005.0
20260505011023 55 292 1.0 2.0 0.00 0.00 0.00 58 1004.9
20260505010518 55 299 1.0 2.0 0.00 0.00 0.00 60 1004.9
20260505010015 55 290 1.0 2.0 0.00 0.00 0.00 62 1004.8
20260505005512 55 294 2.0 5.0 0.00 0.00 0.00 61 1005.0
20260505005009 55 310 5.0 8.0 0.00 0.00 0.00 62 1004.7
20260505004506 55 334 10.0 11.0 0.00 0.00 0.00 63 1005.3
20260505004003 55 282 12.0 16.0 0.00 0.00 0.00 61 1004.9
20260505003500 56 313 13.0 15.0 0.00 0.00 0.00 57 1005.1
20260505002956 57 294 6.0 10.0 0.00 0.00 0.00 55 1005.0
20260505002452 57 346 11.0 17.0 0.00 0.00 0.00 53 1005.1
20260505001951 58 258 7.0 13.0 0.00 0.00 0.00 50 1004.9
20260505001448 59 326 12.0 16.0 0.00 0.00 0.00 46 1005.0
20260505000945 59 323 6.0 17.0 0.00 0.00 0.00 46 1004.9
20260505000443 59 326 10.0 11.0 0.00 0.00 0.00 46 1004.7
20260504235940 59 297 8.0 9.0 0.00 0.00 0.00 46 1004.8
20260504235437 59 325 13.0 16.0 0.00 0.00 0.00 44 1004.8
20260504234933 59 341 11.0 13.0 0.00 0.00 0.00 44 1004.6
20260504234431 60 326 9.0 15.0 0.00 0.00 0.00 43 1004.4
20260504233927 60 338 14.0 17.0 0.00 0.00 0.00 43 1004.2
20260504233423 61 300 7.0 11.0 0.00 0.00 0.00 41 1003.8
20260504232920 61 346 11.0 17.0 0.00 0.00 0.00 40 1003.8
20260504232417 61 323 13.0 16.0 0.00 0.00 0.00 40 1003.7
20260504231914 61 312 9.0 14.0 0.00 0.00 0.00 40 1003.4
20260504231410 61 291 10.0 14.0 0.00 0.00 0.00 40 1003.6
20260504230906 61 322 10.0 14.0 0.00 0.00 0.00 41 1003.3
20260504230404 62 276 13.0 22.0 0.00 0.00 0.00 40 1003.4
20260504225902 62 141 13.0 15.0 0.00 0.00 0.00 39 1003.3
20260504225359 62 311 13.0 18.0 0.00 0.00 0.00 38 1003.1
20260504224856 62 319 14.0 17.0 0.00 0.00 0.00 38 1003.0
20260504224352 62 300 10.0 17.0 0.00 0.00 0.00 37 1002.8
20260504223849 63 308 9.0 25.0 0.00 0.00 0.00 37 1003.1
20260504223345 62 3 8.0 17.0 0.00 0.00 0.00 37 1003.0
20260504222842 63 324 15.0 21.0 0.00 0.00 0.00 36 1002.9
20260504222338 65 335 13.0 25.0 0.00 0.00 0.00 34 1003.0
20260504221837 68 65 6.0 9.0 0.00 0.00 0.00 27 1002.7
20260504221333 68 351 6.0 9.0 0.00 0.00 0.00 28 1002.3
20260504220831 69 40 9.0 10.0 0.00 0.00 0.00 27 1002.3
20260504220327 68 3 8.0 10.0 0.00 0.00 0.00 28 1002.2
20260504215825 68 337 7.0 10.0 0.00 0.00 0.00 29 1002.4
20260504215321 68 310 7.0 9.0 0.00 0.00 0.00 29 1002.2
20260504214817 68 327 7.0 10.0 0.00 0.00 0.00 29 1002.6
20260504214314 68 322 8.0 13.0 0.00 0.00 0.00 29 1002.4
20260504213810 68 339 6.0 9.0 0.00 0.00 0.00 28 1002.4
20260504213306 67 336 5.0 8.0 0.00 0.00 0.00 29 1002.4
20260504212804 67 300 6.0 9.0 0.00 0.00 0.00 30 1002.7
20260504212300 67 259 5.0 10.0 0.00 0.00 0.00 31 1002.8
20260504211758 67 342 4.0 11.0 0.00 0.00 0.00 32 1002.8
20260504211254 66 129 5.0 15.0 0.00 0.00 0.00 32 1002.9
20260504210751 67 298 11.0 13.0 0.00 0.00 0.00 31 1002.9
20260504210248 67 339 7.0 10.0 0.00 0.00 0.00 31 1003.1
20260504205745 67 347 4.0 9.0 0.00 0.00 0.00 31 1003.0
20260504205243 66 325 5.0 10.0 0.00 0.00 0.00 32 1003.1
20260504204741 67 286 8.0 20.0 0.00 0.00 0.00 32 1003.4
20260504204239 66 312 8.0 22.0 0.00 0.00 0.00 34 1003.1
20260504203738 65 351 12.0 41.0 0.00 0.00 0.00 32 1003.3
20260504203235 66 310 16.0 18.0 0.00 0.00 0.00 31 1003.3
20260504202735 65 26 5.0 15.0 0.00 0.00 0.00 33 1003.5
20260504202233 65 337 9.0 22.0 0.00 0.00 0.00 32 1003.5
20260504201730 65 281 9.0 18.0 0.00 0.00 0.00 32 1003.4
20260504201227 66 267 14.0 17.0 0.00 0.00 0.00 32 1003.1
20260504200725 66 13 10.0 21.0 0.00 0.00 0.00 31 1003.0
20260504200220 66 335 9.0 13.0 0.00 0.00 0.00 32 1003.5
20260504195717 66 324 13.0 20.0 0.00 0.00 0.00 32 1003.4
20260504195213 66 315 13.0 18.0 0.00 0.00 0.00 31 1003.6
20260504194710 68 343 12.0 18.0 0.00 0.00 0.00 30 1003.6
20260504194206 68 341 13.0 18.0 0.00 0.00 0.00 29 1003.4
20260504193702 67 346 10.0 17.0 0.00 0.00 0.00 32 1003.5
20260504193200 66 4 8.0 22.0 0.00 0.00 0.00 33 1003.6
20260504192658 65 2 9.0 15.0 0.00 0.00 0.00 33 1003.5
20260504192156 66 337 13.0 16.0 0.00 0.00 0.00 32 1003.4
20260504191654 66 338 11.0 25.0 0.00 0.00 0.00 33 1003.4
20260504191150 68 329 17.0 22.0 0.00 0.00 0.00 32 1003.0
20260504190646 67 334 14.0 26.0 0.00 0.00 0.00 32 1003.0
20260504190143 68 292 13.0 18.0 0.00 0.00 0.00 30 1003.3
20260504185639 67 327 19.0 37.0 0.00 0.00 0.00 31 1003.4
20260504185136 66 303 22.0 41.0 0.00 0.00 0.00 32 1003.6
20260504184632 67 358 13.0 21.0 0.00 0.00 0.00 32 1003.1
20260504184127 66 337 14.0 27.0 0.00 0.00 0.00 32 1003.4
20260504183624 68 355 12.0 21.0 0.00 0.00 0.00 29 1003.4
20260504183122 68 7 7.0 20.0 0.00 0.00 0.00 29 1003.4
20260504182620 67 329 16.0 20.0 0.00 0.00 0.00 27 1003.6
20260504182117 70 4 9.0 14.0 0.00 0.00 0.00 25 1003.1
20260504181614 69 7 10.0 14.0 0.00 0.00 0.00 25 1002.8
20260504181111 69 26 10.0 15.0 0.00 0.00 0.00 28 1003.0
20260504180611 69 326 8.0 17.0 0.00 0.00 0.00 29 1003.3
20260504180109 70 12 12.0 17.0 0.00 0.00 0.00 27 1003.0
20260504175606 69 322 6.0 14.0 0.00 0.00 0.00 28 1002.9
20260504175103 70 1 10.0 20.0 0.00 0.00 0.00 24 1003.0
20260504174601 70 5 9.0 11.0 0.00 0.00 0.00 24 1003.1
20260504174057 70 330 5.0 8.0 0.00 0.00 0.00 26 1003.0
20260504173554 70 326 0.0 3.0 0.00 0.00 0.00 23 1003.1
20260504173052 69 248 7.0 10.0 0.00 0.00 0.00 25 1003.1
20260504172547 69 332 5.0 7.0 0.00 0.00 0.00 24 1003.0
20260504172044 70 256 6.0 10.0 0.00 0.00 0.00 23 1003.4
20260504171541 71 262 7.0 11.0 0.00 0.00 0.00 23 1003.5
20260504171038 71 193 11.0 13.0 0.00 0.00 0.00 23 1003.5
20260504170534 71 310 2.0 6.0 0.00 0.00 0.00 25 1003.7
20260504150912 64 205 11.0 16.0 0.00 0.00 0.00 28 1004.9
20260504150409 63 234 13.0 23.0 0.00 0.00 0.00 28 1005.0
20260504140835 57 339 2.0 8.0 0.00 0.00 0.00 32 1005.1
20260504140331 58 201 11.0 14.0 0.00 0.00 0.00 31 1005.1
20260504130800 53 162 13.0 18.0 0.00 0.00 0.00 36 1004.9
20260504130256 53 182 7.0 23.0 0.00 0.00 0.00 36 1004.8
20260504120220 52 149 9.0 15.0 0.00 0.00 0.00 37 1004.8
20260504110641 51 179 3.0 10.0 0.00 0.00 0.00 39 1005.3
20260504110137 51 191 8.0 17.0 0.00 0.00 0.00 38 1004.8
20260504100603 51 94 3.0 3.0 0.00 0.00 0.00 40 1005.3
20260504081956 53 210 3.0 5.0 0.00 0.00 0.00 39 1006.0
20260504081454 53 295 0.0 1.0 0.00 0.00 0.00 43 1006.0
20260504080949 54 299 2.0 2.0 0.00 0.00 0.00 43 1006.3
20260504080446 54 283 4.0 5.0 0.00 0.00 0.00 41 1006.2